Preview of NWS' New Version of Forecast
This preview is not operational and should not be used for support decisions.

Regional Weather Roundup (RWR)

Issued by National Weather Service (NWS)

                            
000
ASUS43 KDMX 170701
RWRIA 

WEATHER ROUNDUP FOR IOWA
NATIONAL WEATHER SERVICE DES MOINES IA
100 AM CST SUN FEB 17 2019

NOTE: "FAIR" INDICATES FEW OR NO CLOUDS BELOW 12,000 FEET WITH NO
SIGNIFICANT WEATHER AND/OR OBSTRUCTIONS TO VISIBILITY.

* - THESE STATIONS ARE NOT NWS STATIONS...THUS NOT UNDER NWS
QUALITY CONTROL.  THEY ALSO DO NOT REPORT WEATHER SUCH 
AS PRECIPITATION OR FOG.  

IAZ001>003-012>014-020>022-031>034-043>046-170800-
   NORTHWEST IOWA
  
CITY           SKY/WX    TMP DP  RH WIND       PRES   REMARKS
CARROLL *      LGT SNOW  19  19 100 E8        29.82F WCI   9          
CHEROKEE *     LGT SNOW  17  16  94 NE7       29.85F WCI   8          
DENISON *      LGT SNOW  18  16  93 E8        29.83S WCI   7          
LE MARS *      LGT SNOW  18  16  93 NE10      29.85F WCI   6          
ORANGE CITY *  LGT SNOW  18  16  93 E6        29.84F WCI   9          
SHELDON *      LGT SNOW  16  16 100 E12       29.85S WCI   3          
SIOUX CITY     LGT SNOW  18  15  88 MISG      29.85S FOG              
SPENCER        LGT SNOW  18  13  80 E14       29.87S VSB 1   WCI   4  
STORM LAKE *   LGT SNOW  16  16 100 NE13      29.83S VSB 1   WCI   2  
$$
 
IAZ055>058-069>071-079>083-090>094-170800-
   SOUTHWEST IOWA
  
CITY           SKY/WX    TMP DP  RH WIND       PRES   REMARKS
ATLANTIC *     MIX PCPN  19  19 100 NE9G16    29.79F VSB 3/4 WCI   9  
AUDUBON *      LGT SNOW  19  16  86 CALM      29.80F                  
CLARINDA *     CLOUDY    21  19  93 E9        29.80F FOG     WCI  11  
COUNCIL BLFS * LGT SNOW  19  19 100 NE9       29.78F WCI   9          
CRESTON *      LGT SNOW  21  21 100 E16       29.78F WCI   7          
HARLAN  *      LGT SNOW  19  18  93 E10G17    29.80S WCI   8          
LAMONI         CLOUDY    24  22  91 NE7       29.76F FOG     WCI  16  
RED OAK *      LGT SNOW  21  21 100 NE10      29.79S WCI  10          
SHENANDOAH *   LGT SNOW  21  21 100 NE12      29.79S WCI   9          
$$
 
IAZ047>049-059>061-072>074-084-170800-
   CENTRAL IOWA
  
CITY           SKY/WX    TMP DP  RH WIND       PRES   REMARKS
AMES           SNOW      22  20  92 E8        29.86F VSB 1/2 WCI  12  
ANKENY *       LGT SNOW  23  21  93 E8        29.86F VSB 1   WCI  14  
BOONE *        LGT SNOW  21  21 100 E13       29.83F VSB 3/4 WCI   9  
CHARITON *     LGT SNOW  25  25 100 NE9       29.80F WCI  15          
DES MOINES     SNOW      23  21  92 E10       29.83F VSB 1/2 WCI  12  
GRINNELL*      LGT SNOW  24  23  96 E15       29.86F VSB 3/4 WCI  11  
KNOXVILLE *    LGT SNOW  25  25 100 NE10G17   29.83S WCI  15          
MARSHALLTOWN   SNOW      23  22  96 E13       29.87F VSB 1/2 WCI  11  
NEWTON *       LGT SNOW  23  23 100 E12       29.85F WCI  12          
PELLA *        LGT SNOW  25  23  92 E7        29.86S VSB 1   WCI  17  
PERRY *        LGT SNOW  22  22  99 E13       29.83F VSB 1   WCI  10  
$$
 
IAZ004>006-015-016-023>025-035-036-170800-
   NORTH CENTRAL IOWA
  
CITY           SKY/WX    TMP DP  RH WIND       PRES   REMARKS
ALGONA *       LGT SNOW  18  18 100 E10       29.86F WCI   6          
CLARION *      FOG       19  18  93 E15       29.87F VSB 3/4 WCI   5  
ESTHERVILLE    LGT SNOW  14  11  87 E13       29.88F FOG     WCI   0  
FORT DODGE *   LGT SNOW  18  16  92 E14       29.86S FOG     WCI   4  
MASON CITY     LGT SNOW  18  15  88 E15       29.91F VSB 3/4 WCI   4  
FOREST CITY *  LGT SNOW  19  18  93 E8        29.89F WCI   9          
IOWA FALLS *   LGT SNOW  22  20  93 E12G17    29.88F WCI  10          
$$

IAZ007>011-017>019-026>030-037>042-050>054-066-170800-
   NORTHEAST IOWA
  
CITY           SKY/WX    TMP DP  RH WIND       PRES   REMARKS
CEDAR RAPIDS   SNOW      24  23  96 E14       29.88F VSB 1/2 WCI  12  
CHARLES CITY * LGT SNOW  19  16  86 E12       29.92F VSB 3/4 WCI   7  
CLINTON *      CLOUDY    24  20  84 E16       29.95F WCI  11          
DECORAH *      CLOUDY    19  18  93 E9        29.96F WCI   9          
DUBUQUE        LGT SNOW  24  18  77 E12G17    29.95F WCI  13          
OELWEIN *      FOG       21  21 100 E12       29.92F VSB 1/2 WCI   9  
WATERLOO       LGT SNOW  23  20  88 E14       29.91F VSB 3/4 WCI  11  
$$
 
IAZ064-065-067-068-078-170800-
   EAST CENTRAL IOWA
  
CITY           SKY/WX    TMP DP  RH WIND       PRES   REMARKS
DAVENPORT      CLOUDY    25  19  78 E9        29.95S WCI  15          
IOWA CITY      LGT SNOW  26  23  88 E9G24     29.92F VSB 3/4 WCI  17  
MT. PLEASANT * LGT SNOW  28  27  93 E13       29.86F WCI  18          
MUSCATINE *    LGT SNOW  27  23  86 E14       29.92F WCI  15          
QUAD CITIES    CLOUDY    27  20  75 E10       29.92S WCI  17          
$$
 
IAZ062-063-075>077-085>089-095>099-170800-
   SOUTHEAST IOWA
  
CITY           SKY/WX    TMP DP  RH WIND       PRES   REMARKS
BURLINGTON     LGT SNOW  27  22  81 E12       29.86F WCI  17          
FAIRFIELD *    CLOUDY    27  25  93 E14G20    29.84S FOG     WCI  15  
KEOKUK *       LGT SNOW  27  25  93 E12G17    29.83F WCI  16          
OSKALOOSA *    LGT SNOW  25  24  95 E14       29.85S VSB 3/4 WCI  13  
OTTUMWA        LGT SNOW  26  24  92 E15       29.83S VSB 3/4 WCI  14  
WASHINGTON *   LGT SNOW  27  25  93 E18G24    29.87F VSB 1   WCI  13  
$$

ABBREVIATIONS USED IN REMARKS
   TC - TEMPERATURES IN CELSIUS
  WCI - WIND CHILL INDEX
   HX - HEAT INDEX
  VSB - VISIBILITY  
$$